WY7ATH-2 Weather Reports


Display with metric or nautical units.
time (UTC)temp
F
wind
direction
speed
MPH
gust
MPH
rain 1hr
in
rain 24hr
in
rain mn
in
humidity
%
barometer
mb
20260504170216 67 287 0.0 0.0 0.59 6.57 1.98
20260504160230 69 287 0.0 0.0 0.61 6.57 1.39
20260504140300 63 287 0.0 0.0 0.19 6.57 0.25
20260504110345 42 287 0.0 0.0 0.00 6.57 0.00
20260504081431 42 287 0.0 0.0 0.00 6.57 0.00
20260504080431 43 287 0.0 0.0 0.00 6.57 0.00
20260504050520 41 287 0.0 0.0 0.00 7.69 6.57
20260504045519 42 287 0.0 0.0 0.00 7.69 6.57
20260504044522 42 287 0.0 0.0 0.00 7.69 6.57
20260504043526 42 287 0.0 0.0 0.00 7.69 6.57
20260504042529 42 287 0.0 0.0 0.00 7.69 6.57
20260504041532 42 287 0.0 0.0 0.00 7.69 6.57
20260504040531 41 287 0.0 0.0 0.00 7.69 6.57
20260504035535 42 287 0.0 0.0 0.00 7.69 6.57
20260504031547 44 287 0.0 0.0 0.00 7.69 6.57
20260504025550 45 287 0.0 0.0 0.21 7.69 6.57
20260504022559 48 287 0.0 0.0 0.21 7.69 6.57
20260504015605 50 287 0.0 0.0 0.39 7.69 6.57
20260504014608 54 287 0.0 0.0 0.39 7.69 6.56
20260504012614 56 287 0.0 0.0 0.39 7.69 6.49
20260504011617 58 287 0.0 0.0 0.39 7.69 6.46
20260504010617 59 287 0.0 0.0 0.39 7.69 6.40
20260504001632 62 287 0.0 0.0 0.47 7.69 6.09
20260503235634 63 287 0.0 0.0 0.53 7.69 5.96
20260503232644 66 287 0.0 0.0 0.53 7.69 5.73
20260503224651 68 287 0.0 0.0 0.50 7.69 5.41
20260503223653 68 287 0.0 0.0 0.50 7.69 5.31
20260503222656 68 287 0.0 0.0 0.50 7.69 5.23
20260503221700 68 287 0.0 0.0 0.50 7.69 5.13
20260503214705 69 287 0.0 0.0 0.55 7.69 4.87
20260503211715 67 287 0.0 0.0 0.55 7.69 4.61
20260503210714 66 287 0.0 0.0 0.55 7.69 4.53
20260503205717 67 287 0.0 0.0 0.49 7.69 4.45
20260503202726 69 287 0.0 0.0 0.49 7.69 4.17
20260503201729 68 287 0.0 0.0 0.49 7.69 4.08
20260503200729 68 287 0.0 0.0 0.49 7.69 3.99
20260503195732 66 287 0.0 0.0 0.51 7.69 3.91
20260503194735 65 287 0.0 0.0 0.51 7.69 3.83
20260503193738 67 287 0.0 0.0 0.51 7.69 3.76
20260503192741 66 287 0.0 0.0 0.51 7.69 3.68
20260503185746 64 287 0.0 0.0 0.63 7.69 3.41
20260503184749 60 287 0.0 0.0 0.63 7.69 3.30
20260503183752 65 287 0.0 0.0 0.63 7.69 3.22
20260503181759 60 287 0.0 0.0 0.63 7.69 3.06
20260503180758 63 287 0.0 0.0 0.63 7.69 2.99
20260503175801 59 287 0.0 0.0 0.68 7.69 2.91
20260503174804 61 287 0.0 0.0 0.68 7.69 2.83
20260503173807 62 287 0.0 0.0 0.68 7.69 2.74